Regional Weather Roundup
Issued by NWS

Home | Current Version | Previous Version | Graphics & Text | Print | Product List | Glossary On
Versions: 1 2 3 4 5 6 7 8 9 10 11 12 13 14 15 16 17 18 19 20 21 22 23 24 25 26 27 28 29 30 31 32 33 34 35 36 37 38 39 40 41 42 43 44 45 46 47 48 49 50
000
ASUS43 KLSX 291507
RWRMO

WEATHER SUMMARY FOR MISSOURI
NATIONAL WEATHER SERVICE SPRINGFIELD MO
1000 AM CDT FRI APR 29 2016

NOTE: "FAIR" INDICATES FEW OR NO CLOUDS BELOW 12,000 FEET WITH NO
       SIGNIFICANT WEATHER AND/OR OBSTRUCTIONS TO VISIBILITY.
       CURRENT SKY AND/OR WEATHER CONDITIONS ARE NOT AVAILABLE FOR
       CHILLICOTHE AND FARMINGTON.

MOZ001>031-035>038-043-044-053-054-291600-
...NORTHERN AND WESTERN MISSOURI...

CITY           SKY/WX    TMP DP  RH WIND       PRES   REMARKS
KANSAS CTY INT CLOUDY    50  43  77 NE10      30.04F
KANSAS C DTWN  CLOUDY    52  45  77 NE10      30.03F
LEE`S SUMMIT   CLOUDY    52  45  77 NE14      30.02F
ST JOSEPH      CLOUDY    49  42  77 E9        30.07S
CHILLICOTHE      N/A     51  46  83 NE8       30.06F
KIRKSVILLE     CLOUDY    52  45  77 NE10      30.07F

$$
MOZ066>068-077>081-088>096-101>105-291600-
...SOUTHWEST MISSOURI...

CITY           SKY/WX    TMP DP  RH WIND       PRES   REMARKS
SPRINGFIELD    RAIN      52  49  89 SE9       30.02R FOG
JOPLIN         LGT RAIN  51  50  96 N13G20    29.92F
BRANSON        TSTM      52  50  93 E8        30.03F

$$
MOZ032>034-039>042-045>050-055>058-069>072-291600-
...CENTRAL MISSOURI...

CITY           SKY/WX    TMP DP  RH WIND       PRES   REMARKS
COLUMBIA       CLOUDY    55  49  80 NE9       30.04S
JEFFERSON CITY CLOUDY    54  47  77 E8        30.05R
ROLLA          CLOUDY    52  47  83 E8        30.03R
SEDALIA        PTSUNNY   55  48  77 NE10      30.04F
WHITEMAN AFB   PTSUNNY   53  49  84 NE12      30.01F
WARRENSBURG    CLOUDY    52  45  76 N10       30.02F
OSAGE BEACH    CLOUDY    52  43  71 E8        30.04R

$$
MOZ051-052-059>065-291600-
...EAST CENTRAL MISSOURI...

CITY           SKY/WX    TMP DP  RH WIND       PRES   REMARKS
ST LOUIS INTL  CLOUDY    59  47  64 NE9       30.04F
SPIRIT OF STL  CLOUDY    58  50  75 NE10      30.02F
ST CHARLES     CLOUDY    58  51  78 NE15      30.01F

$$
MOZ072>076-082>087-097>100-106>115-291600-
...SOUTH CENTRAL AND SOUTHEAST MISSOURI...

CITY           SKY/WX    TMP DP  RH WIND       PRES   REMARKS
CAPE GIRARDEAU CLOUDY    60  51  72 NE6       30.02R
FARMINGTON     CLOUDY    56  50  80 E6        30.06R
POPLAR BLUFF   CLOUDY    59  51  75 NE9       30.01S
WEST PLAINS    CLOUDY    54  47  77 E8        30.03R

$$



USA.gov is the U.S. government's official web portal to all federal, state and local government web resources and services.